Location: Pescara
(42.4670°N, 14.2170°E)
Time: 03:37:13
(UTC+02:00)

ISS - Pass Details

Date: 14 May 2021
Orbit: 417 x 422 km, 51.6° (Epoch: 14 June)

Event Time Altitude Azimuth Distance (km) Brightness Sun altitude
Exits shadow 02:51:02 - 306° (NW) 2,343 0.1 -23.7°
Reaches altitude 10° 02:53:22 10° 321° (NW) 1,508 -0.7 -23.5°
Maximum altitude 02:56:06 22° 15° (NNE) 970 -1.2 -23.2°
Drops below altitude 10° 02:58:50 10° 69° (ENE) 1,507 -0.3 -23.0°
Sets 03:01:15 0° 85° (E) 2,370 0.6 -22.8°
